Location: Zagreb
(45.8000°N, 16.0000°E)
Time: 23:34:09
(UTC+02:00)

Envisat - Pass Details

Date: 24 April 2024
Orbit: 762 x 764 km, 98.3° (Epoch: 27 May)

Event Time Altitude Azimuth Distance (km) Brightness Sun altitude
Rises 03:26:34 0° 24° (NNE) 3,238 7.5 -21.9°
Reaches altitude 10° 03:29:13 10° 36° (NE) 2,307 6.6 -21.6°
Maximum altitude 03:33:32 28° 94° (E) 1,421 4.7 -21.1°
Drops below altitude 10° 03:37:49 10° 152° (SSE) 2,291 5.3 -20.6°
Enters shadow 03:38:13 - 155° (SSE) 2,423 5.4 -20.6°
